Location: Atbuku
(36.4936°N, 30.4362°E)
Time: 09:50:23
(UTC+00:00)

Cosmos 1607 - Pass Details

Date: 17 March 2026
Orbit: 919 x 983 km, 65.0° (Epoch: 20 April)

Event Time Altitude Azimuth Distance (km) Brightness Sun altitude
Rises 16:51:38 0° 328° (NNW) 3,649 7.6 -9.7°
Reaches altitude 10° 16:54:11 10° 327° (NNW) 2,708 6.9 -10.2°
Maximum altitude 17:00:31 76° 243° (WSW) 1,007 4.2 -11.5°
Drops below altitude 10° 17:06:54 10° 159° (SSE) 2,722 6.1 -12.8°
Sets 17:09:28 0° 157° (SSE) 3,669 6.7 -13.3°
